Simultaneous Nadir Overpasses (SNOs) Predictions

Prediction of SNOs between AQUA and NOAA-19 Satellite Orbit:

Table of predicted SNOs for the next 14.0 days since TLE Epoch: 10/26/2024
Index Date (AQUA) Time (AQUA) Lat,Lon (AQUA) SZA (AQUA ) Date (NOAA-19) Time (NOAA-19) Lat,Lon (NOAA-19) SZA (NOAA-19 ) Distance(km) Time Diff (sec)
1 10/28/2024 01:59:39 75.58, 150.71 88.78 10/28/2024 01:58:38 75.59, 150.60 88.79 3.24 61
2 10/28/2024 02:49:01 -75.69, -41.95 91.11 10/28/2024 02:49:35 -75.69, -41.82 91.10 3.63 34
3 10/30/2024 04:58:34 75.34, 106.70 89.26 10/30/2024 04:57:25 75.23, 104.83 89.11 54.05 69
4 10/30/2024 05:48:00 -75.64, -86.51 90.45 10/30/2024 05:48:15 -75.63, -86.62 90.46 3.30 15
5 11/01/2024 08:46:58 -75.63,-131.18 89.77 11/01/2024 08:46:53 -75.65,-131.17 89.75 2.15 5
6 11/03/2024 11:45:54 -75.61,-175.82 89.13 11/03/2024 11:45:32 -75.61,-175.90 89.13 2.29 22
7 11/03/2024 12:35:16 75.69, -8.37 90.96 11/03/2024 12:36:29 75.74, -8.24 91.02 6.47 73
8 11/05/2024 14:44:49 -75.64, 139.43 88.46 11/05/2024 14:44:10 -75.61, 139.47 88.49 3.28 39
9 11/05/2024 15:34:10 75.66, -52.98 91.58 11/05/2024 15:35:09 75.66, -53.10 91.59 3.31 59
10 11/07/2024 17:43:41 -75.60, 94.87 87.86 11/07/2024 17:42:48 -75.59, 94.81 87.88 1.91 53



Historial Predications of SNOs between AQUA and NOAA-19
